Year,Month,Day,Hour,Minute,Value (Times are PST for temperature in C)
2018,08,03,00,00,15.90
2018,08,03,00,01,15.90
2018,08,03,00,02,15.90
2018,08,03,00,03,15.90
2018,08,03,00,04,15.90
2018,08,03,00,05,15.90
2018,08,03,00,06,15.90
2018,08,03,00,07,15.90
2018,08,03,00,08,15.90
2018,08,03,00,09,15.90
2018,08,03,00,10,15.90
2018,08,03,00,11,15.90
2018,08,03,00,12,15.90
2018,08,03,00,13,15.90
2018,08,03,00,14,15.90
2018,08,03,00,15,15.90
2018,08,03,00,16,15.90
2018,08,03,00,17,15.90
2018,08,03,00,18,15.90
2018,08,03,00,19,15.90
2018,08,03,00,20,15.90
2018,08,03,00,21,15.90
2018,08,03,00,22,15.90
2018,08,03,00,23,15.90
2018,08,03,00,24,15.90
2018,08,03,00,25,15.90
2018,08,03,00,26,15.90
2018,08,03,00,27,15.90
2018,08,03,00,28,15.90
2018,08,03,00,29,15.80
2018,08,03,00,30,15.90
2018,08,03,00,31,15.80
2018,08,03,00,32,15.80
2018,08,03,00,33,15.80
2018,08,03,00,34,15.80
2018,08,03,00,35,15.80
2018,08,03,00,36,15.80
2018,08,03,00,37,15.80
2018,08,03,00,38,15.80
2018,08,03,00,39,15.80
2018,08,03,00,40,15.80
2018,08,03,00,41,15.80
2018,08,03,00,42,15.80
2018,08,03,00,43,15.80
2018,08,03,00,44,15.80
2018,08,03,00,45,15.80
2018,08,03,00,46,15.80
2018,08,03,00,47,15.80
2018,08,03,00,48,15.80
2018,08,03,00,49,15.80
2018,08,03,00,50,15.80
2018,08,03,00,51,15.80
2018,08,03,00,52,15.80
2018,08,03,00,53,15.80
2018,08,03,00,54,15.80
2018,08,03,00,55,15.80
2018,08,03,00,56,15.80
2018,08,03,00,57,15.80
2018,08,03,00,58,15.80
2018,08,03,00,59,15.80
2018,08,03,01,00,15.80
2018,08,03,01,01,15.80
2018,08,03,01,02,15.80
2018,08,03,01,03,15.80
2018,08,03,01,04,15.70
2018,08,03,01,05,15.70
2018,08,03,01,06,15.80
2018,08,03,01,07,15.80
2018,08,03,01,08,15.70
2018,08,03,01,09,15.80
2018,08,03,01,10,15.80
2018,08,03,01,11,15.80
2018,08,03,01,12,15.80
2018,08,03,01,13,15.80
2018,08,03,01,14,15.80
2018,08,03,01,15,15.80
2018,08,03,01,16,15.80
2018,08,03,01,17,15.80
2018,08,03,01,18,15.80
2018,08,03,01,19,15.80
2018,08,03,01,20,15.80
2018,08,03,01,21,15.80
2018,08,03,01,22,15.80
2018,08,03,01,23,15.80
2018,08,03,01,24,15.80
2018,08,03,01,25,15.80
2018,08,03,01,26,15.80
2018,08,03,01,27,15.70
2018,08,03,01,28,15.70
2018,08,03,01,29,15.70
2018,08,03,01,30,15.70
2018,08,03,01,31,15.70
2018,08,03,01,32,15.70
2018,08,03,01,33,15.70
2018,08,03,01,34,15.70
2018,08,03,01,35,15.70
2018,08,03,01,36,15.70
2018,08,03,01,37,15.70
2018,08,03,01,38,15.70
2018,08,03,01,39,15.70
2018,08,03,01,40,15.70
2018,08,03,01,41,15.70
2018,08,03,01,42,15.70
2018,08,03,01,43,15.70
2018,08,03,01,44,15.70
2018,08,03,01,45,15.70
2018,08,03,01,46,15.70
2018,08,03,01,47,15.70
2018,08,03,01,48,15.60
2018,08,03,01,49,15.60
2018,08,03,01,50,15.60
2018,08,03,01,51,15.60
2018,08,03,01,52,15.60
2018,08,03,01,53,15.60
2018,08,03,01,54,15.60
2018,08,03,01,55,15.60
2018,08,03,01,56,15.60
2018,08,03,01,57,15.60
2018,08,03,01,58,15.60
2018,08,03,01,59,15.60
2018,08,03,02,00,15.50
2018,08,03,02,01,15.50
2018,08,03,02,02,15.50
2018,08,03,02,03,15.50
2018,08,03,02,04,15.40
2018,08,03,02,05,15.40
2018,08,03,02,06,15.40
2018,08,03,02,07,15.40
2018,08,03,02,08,15.40
2018,08,03,02,09,15.40
2018,08,03,02,10,15.40
2018,08,03,02,11,15.40
2018,08,03,02,12,15.40
2018,08,03,02,13,15.40
2018,08,03,02,14,15.40
2018,08,03,02,15,15.40
2018,08,03,02,16,15.40
2018,08,03,02,17,15.40
2018,08,03,02,18,15.40
2018,08,03,02,19,15.40
2018,08,03,02,20,15.40
2018,08,03,02,21,15.30
2018,08,03,02,22,15.30
2018,08,03,02,23,15.30
2018,08,03,02,24,15.30
2018,08,03,02,25,15.30
2018,08,03,02,26,15.30
2018,08,03,02,27,15.30
2018,08,03,02,28,15.30
2018,08,03,02,29,15.30
2018,08,03,02,30,15.30
2018,08,03,02,31,15.30
2018,08,03,02,32,15.20
2018,08,03,02,33,15.20
2018,08,03,02,34,15.20
2018,08,03,02,35,15.20
2018,08,03,02,36,15.10
2018,08,03,02,37,15.10
2018,08,03,02,38,15.10
2018,08,03,02,39,15.10
2018,08,03,02,40,15.00
2018,08,03,02,41,15.00
2018,08,03,02,42,15.00
2018,08,03,02,43,14.90
2018,08,03,02,44,14.90
2018,08,03,02,45,14.90
2018,08,03,02,46,14.90
2018,08,03,02,47,14.90
2018,08,03,02,48,14.90
2018,08,03,02,49,14.90
2018,08,03,02,50,14.90
2018,08,03,02,51,14.80
2018,08,03,02,52,14.80
2018,08,03,02,53,14.80
2018,08,03,02,54,14.70
2018,08,03,02,55,14.70
2018,08,03,02,56,14.60
2018,08,03,02,57,14.60
2018,08,03,02,58,14.50
2018,08,03,02,59,14.50
2018,08,03,03,00,14.40
2018,08,03,03,01,14.40
2018,08,03,03,02,14.40
2018,08,03,03,03,14.40
2018,08,03,03,04,14.40
2018,08,03,03,05,14.40
2018,08,03,03,06,14.30
2018,08,03,03,07,14.30
2018,08,03,03,08,14.30
2018,08,03,03,09,14.30
2018,08,03,03,10,14.30
2018,08,03,03,11,14.30
2018,08,03,03,12,14.30
2018,08,03,03,13,14.30
2018,08,03,03,14,14.30
2018,08,03,03,15,14.40
2018,08,03,03,16,14.40
2018,08,03,03,17,14.40
2018,08,03,03,18,14.40
2018,08,03,03,19,14.40
2018,08,03,03,20,14.40
2018,08,03,03,21,14.40
2018,08,03,03,22,14.50
2018,08,03,03,23,14.50
2018,08,03,03,24,14.50
2018,08,03,03,25,14.50
2018,08,03,03,26,14.50
2018,08,03,03,27,14.50
2018,08,03,03,28,14.50
2018,08,03,03,29,14.60
2018,08,03,03,30,14.60
2018,08,03,03,31,14.60
2018,08,03,03,32,14.50
2018,08,03,03,33,14.50
2018,08,03,03,34,14.50
2018,08,03,03,35,14.40
2018,08,03,03,36,14.40
2018,08,03,03,37,14.40
2018,08,03,03,38,14.40
2018,08,03,03,39,14.40
2018,08,03,03,40,14.40
2018,08,03,03,41,14.40
2018,08,03,03,42,14.30
2018,08,03,03,43,14.30
2018,08,03,03,44,14.30
2018,08,03,03,45,14.30
2018,08,03,03,46,14.30
2018,08,03,03,47,14.30
2018,08,03,03,48,14.30
2018,08,03,03,49,14.30
2018,08,03,03,50,14.20
2018,08,03,03,51,14.20
2018,08,03,03,52,14.20
2018,08,03,03,53,14.20
2018,08,03,03,54,14.20
2018,08,03,03,55,14.20
2018,08,03,03,56,14.20
2018,08,03,03,57,14.30
2018,08,03,03,58,14.30
2018,08,03,03,59,14.30
2018,08,03,04,00,14.30
2018,08,03,04,01,14.30
2018,08,03,04,02,14.30
2018,08,03,04,03,14.30
2018,08,03,04,04,14.30
2018,08,03,04,05,14.30
2018,08,03,04,06,14.30
2018,08,03,04,07,14.30
2018,08,03,04,08,14.30
2018,08,03,04,09,14.30
2018,08,03,04,10,14.30
2018,08,03,04,11,14.30
2018,08,03,04,12,14.30
2018,08,03,04,13,14.30
2018,08,03,04,14,14.30
2018,08,03,04,15,14.30
2018,08,03,04,16,14.30
2018,08,03,04,17,14.30
2018,08,03,04,18,14.30
2018,08,03,04,19,14.30
2018,08,03,04,20,14.30
2018,08,03,04,21,14.30
2018,08,03,04,22,14.30
2018,08,03,04,23,14.30
2018,08,03,04,24,14.30
2018,08,03,04,25,14.30
2018,08,03,04,26,14.30
2018,08,03,04,27,14.30
2018,08,03,04,28,14.30
2018,08,03,04,29,14.30
2018,08,03,04,30,14.30
2018,08,03,04,31,14.30
2018,08,03,04,32,14.30
2018,08,03,04,33,14.30
2018,08,03,04,34,14.30
2018,08,03,04,35,14.30
2018,08,03,04,36,14.30
2018,08,03,04,37,14.30
2018,08,03,04,38,14.30
2018,08,03,04,39,14.30
2018,08,03,04,40,14.30
2018,08,03,04,41,14.30
2018,08,03,04,42,14.40
2018,08,03,04,43,14.40
2018,08,03,04,44,14.40
2018,08,03,04,45,14.40
2018,08,03,04,46,14.40
2018,08,03,04,47,14.40
2018,08,03,04,48,14.40
2018,08,03,04,49,14.40
2018,08,03,04,50,14.40
2018,08,03,04,51,14.40
2018,08,03,04,52,14.40
2018,08,03,04,53,14.40
2018,08,03,04,54,14.40
2018,08,03,04,55,14.40
2018,08,03,04,56,14.40
2018,08,03,04,57,14.40
2018,08,03,04,58,14.40
2018,08,03,04,59,14.40
2018,08,03,05,00,14.40
2018,08,03,05,01,14.40
2018,08,03,05,02,14.40
2018,08,03,05,03,14.40
2018,08,03,05,04,14.40
2018,08,03,05,05,14.40
2018,08,03,05,06,14.40
2018,08,03,05,07,14.40
2018,08,03,05,08,14.40
2018,08,03,05,09,14.40
2018,08,03,05,10,14.40
2018,08,03,05,11,14.40
2018,08,03,05,12,14.40
2018,08,03,05,13,14.40
2018,08,03,05,14,14.40
2018,08,03,05,15,14.40
2018,08,03,05,16,14.40
2018,08,03,05,17,14.40
2018,08,03,05,18,14.40
2018,08,03,05,19,14.50
2018,08,03,05,20,14.50
2018,08,03,05,21,14.50
2018,08,03,05,22,14.50
2018,08,03,05,23,14.50
2018,08,03,05,24,14.50
2018,08,03,05,25,14.50
2018,08,03,05,26,14.50
2018,08,03,05,27,14.50
2018,08,03,05,28,14.50
2018,08,03,05,29,14.50
2018,08,03,05,30,14.50
2018,08,03,05,31,14.50
2018,08,03,05,32,14.50
2018,08,03,05,33,14.50
2018,08,03,05,34,14.50
2018,08,03,05,35,14.50
2018,08,03,05,36,14.50
2018,08,03,05,37,14.50
2018,08,03,05,38,14.50
2018,08,03,05,39,14.50
2018,08,03,05,40,14.50
2018,08,03,05,41,14.50
2018,08,03,05,42,14.50
2018,08,03,05,43,14.40
2018,08,03,05,44,14.40
2018,08,03,05,45,14.40
2018,08,03,05,46,14.40
2018,08,03,05,47,14.40
2018,08,03,05,48,14.40
2018,08,03,05,49,14.40
2018,08,03,05,50,14.40
2018,08,03,05,51,14.40
2018,08,03,05,52,14.40
2018,08,03,05,53,14.50
2018,08,03,05,54,14.50
2018,08,03,05,55,14.50
2018,08,03,05,56,14.50
2018,08,03,05,57,14.50
2018,08,03,05,58,14.50
2018,08,03,05,59,14.50
2018,08,03,06,00,14.60
2018,08,03,06,01,14.60
2018,08,03,06,02,14.60
2018,08,03,06,03,14.60
2018,08,03,06,04,14.60
2018,08,03,06,05,14.60
2018,08,03,06,06,14.60
2018,08,03,06,07,14.50
2018,08,03,06,08,14.50
2018,08,03,06,09,14.50
2018,08,03,06,10,14.50
2018,08,03,06,11,14.50
2018,08,03,06,12,14.50
2018,08,03,06,13,14.50
2018,08,03,06,14,14.50
2018,08,03,06,15,14.60
2018,08,03,06,16,14.60
2018,08,03,06,17,14.60
2018,08,03,06,18,14.60
2018,08,03,06,19,14.60
2018,08,03,06,20,14.60
2018,08,03,06,21,14.60
2018,08,03,06,22,14.60
2018,08,03,06,23,14.60
2018,08,03,06,24,14.60
2018,08,03,06,25,14.60
2018,08,03,06,26,14.60
2018,08,03,06,27,14.60
2018,08,03,06,28,14.60
2018,08,03,06,29,14.50
2018,08,03,06,30,14.50
2018,08,03,06,31,14.50
2018,08,03,06,32,14.50
2018,08,03,06,33,14.50
2018,08,03,06,34,14.50
2018,08,03,06,35,14.50
2018,08,03,06,36,14.50
2018,08,03,06,37,14.50
2018,08,03,06,38,14.60
2018,08,03,06,39,14.60
2018,08,03,06,40,14.60
2018,08,03,06,41,14.60
2018,08,03,06,42,14.60
2018,08,03,06,43,14.60
2018,08,03,06,44,14.60
2018,08,03,06,45,14.60
2018,08,03,06,46,14.60
2018,08,03,06,47,14.60
2018,08,03,06,48,14.60
2018,08,03,06,49,14.60
2018,08,03,06,50,14.60
2018,08,03,06,51,14.60
2018,08,03,06,52,14.60
2018,08,03,06,53,14.60
2018,08,03,06,54,14.60
2018,08,03,06,55,14.60
2018,08,03,06,56,14.60
2018,08,03,06,57,14.70
2018,08,03,06,58,14.70
2018,08,03,06,59,14.70
2018,08,03,07,00,14.70
2018,08,03,07,01,14.70
2018,08,03,07,02,14.70
2018,08,03,07,03,14.70
2018,08,03,07,04,14.70
2018,08,03,07,05,14.70
2018,08,03,07,06,14.80
2018,08,03,07,07,14.80
2018,08,03,07,08,14.80
2018,08,03,07,09,14.80
2018,08,03,07,10,14.80
2018,08,03,07,11,14.80
2018,08,03,07,12,14.80
2018,08,03,07,13,14.90
2018,08,03,07,14,14.90
2018,08,03,07,15,14.90
2018,08,03,07,16,14.90
2018,08,03,07,17,14.90
2018,08,03,07,18,14.90
2018,08,03,07,19,14.90
2018,08,03,07,20,14.90
2018,08,03,07,21,14.90
2018,08,03,07,22,14.90
2018,08,03,07,23,14.90
2018,08,03,07,24,14.90
2018,08,03,07,25,14.90
2018,08,03,07,26,14.90
2018,08,03,07,27,14.90
2018,08,03,07,28,14.90
2018,08,03,07,29,14.90
2018,08,03,07,30,14.90
2018,08,03,07,31,14.90
2018,08,03,07,32,14.90
2018,08,03,07,33,14.90
2018,08,03,07,34,14.90
2018,08,03,07,35,14.90
2018,08,03,07,36,14.90
2018,08,03,07,37,14.90
2018,08,03,07,38,14.90
2018,08,03,07,39,14.90
2018,08,03,07,40,15.00
2018,08,03,07,41,15.00
2018,08,03,07,42,15.00
2018,08,03,07,43,15.00
2018,08,03,07,44,15.00
2018,08,03,07,45,15.00
2018,08,03,07,46,15.00
2018,08,03,07,47,15.00
2018,08,03,07,48,15.10
2018,08,03,07,49,15.10
2018,08,03,07,50,15.10
2018,08,03,07,51,15.10
2018,08,03,07,52,15.10
2018,08,03,07,53,15.10
2018,08,03,07,54,15.10
2018,08,03,07,55,15.10
2018,08,03,07,56,15.10
2018,08,03,07,57,15.10
2018,08,03,07,58,15.10
2018,08,03,07,59,15.10
2018,08,03,08,00,15.10
2018,08,03,08,01,15.10
2018,08,03,08,02,15.10
2018,08,03,08,03,15.10
2018,08,03,08,04,15.20
2018,08,03,08,05,15.20
2018,08,03,08,06,15.20
2018,08,03,08,07,15.20
2018,08,03,08,08,15.30
2018,08,03,08,09,15.30
2018,08,03,08,10,15.30
2018,08,03,08,11,15.30
2018,08,03,08,12,15.30
2018,08,03,08,13,15.30
2018,08,03,08,14,15.30
2018,08,03,08,15,15.30
2018,08,03,08,16,15.30
2018,08,03,08,17,15.30
2018,08,03,08,18,15.30
2018,08,03,08,19,15.30
2018,08,03,08,20,15.40
2018,08,03,08,21,15.40
2018,08,03,08,22,15.40
2018,08,03,08,23,15.40
2018,08,03,08,24,15.40
2018,08,03,08,25,15.40
2018,08,03,08,26,15.40
2018,08,03,08,27,15.40
2018,08,03,08,28,15.50
2018,08,03,08,29,15.50
2018,08,03,08,30,15.50
2018,08,03,08,31,15.60
2018,08,03,08,32,15.60
2018,08,03,08,33,15.60
2018,08,03,08,34,15.60
2018,08,03,08,35,15.60
2018,08,03,08,36,15.60
2018,08,03,08,37,15.60
2018,08,03,08,38,15.60
2018,08,03,08,39,15.60
2018,08,03,08,40,15.60
2018,08,03,08,41,15.60
2018,08,03,08,42,15.70
2018,08,03,08,43,15.70
2018,08,03,08,44,15.70
2018,08,03,08,45,15.70
2018,08,03,08,46,15.70
2018,08,03,08,47,15.70
2018,08,03,08,48,15.70
2018,08,03,08,49,15.70
2018,08,03,08,50,15.80
2018,08,03,08,51,15.80
2018,08,03,08,52,15.80
2018,08,03,08,53,15.80
2018,08,03,08,54,15.80
2018,08,03,08,55,15.80
2018,08,03,08,56,15.80
2018,08,03,08,57,15.80
2018,08,03,08,58,15.80
2018,08,03,08,59,15.80
2018,08,03,09,00,15.80
2018,08,03,09,01,15.80
2018,08,03,09,02,15.80
2018,08,03,09,03,15.80
2018,08,03,09,04,15.80
2018,08,03,09,05,15.80
2018,08,03,09,06,15.80
2018,08,03,09,07,15.80
2018,08,03,09,08,15.80
2018,08,03,09,09,15.90
2018,08,03,09,10,15.90
2018,08,03,09,11,15.90
2018,08,03,09,12,16.00
2018,08,03,09,13,16.00
2018,08,03,09,14,16.00
2018,08,03,09,15,16.10
2018,08,03,09,16,16.10
2018,08,03,09,17,16.10
2018,08,03,09,18,16.10
2018,08,03,09,19,16.10
2018,08,03,09,20,16.10
2018,08,03,09,21,16.10
2018,08,03,09,22,16.10
2018,08,03,09,23,16.20
2018,08,03,09,24,16.20
2018,08,03,09,25,16.30
2018,08,03,09,26,16.30
2018,08,03,09,27,16.40
2018,08,03,09,28,16.40
2018,08,03,09,29,16.40
2018,08,03,09,30,16.50
2018,08,03,09,31,16.50
2018,08,03,09,32,16.60
2018,08,03,09,33,16.60
2018,08,03,09,34,16.60
2018,08,03,09,35,16.70
2018,08,03,09,36,16.70
2018,08,03,09,37,16.70
2018,08,03,09,38,16.80
2018,08,03,09,39,16.80
2018,08,03,09,40,16.90
2018,08,03,09,41,16.90
2018,08,03,09,42,16.80
2018,08,03,09,43,16.80
2018,08,03,09,44,16.80
2018,08,03,09,45,16.90
2018,08,03,09,46,16.90
2018,08,03,09,47,16.90
2018,08,03,09,48,17.00
2018,08,03,09,49,17.00
2018,08,03,09,50,17.00
2018,08,03,09,51,17.00
2018,08,03,09,52,17.10
2018,08,03,09,53,17.10
2018,08,03,09,54,17.10
2018,08,03,09,55,17.10
2018,08,03,09,56,17.10
2018,08,03,09,57,17.10
2018,08,03,09,58,17.10
2018,08,03,09,59,17.20
2018,08,03,10,00,17.20
2018,08,03,10,01,17.20
2018,08,03,10,02,17.20
2018,08,03,10,03,17.20
2018,08,03,10,04,17.30
2018,08,03,10,05,17.40
2018,08,03,10,06,17.40
2018,08,03,10,07,17.40
2018,08,03,10,08,17.50
2018,08,03,10,09,17.50
2018,08,03,10,10,17.40
2018,08,03,10,11,17.40
2018,08,03,10,12,17.40
2018,08,03,10,13,17.40
2018,08,03,10,14,17.40
2018,08,03,10,15,17.40
2018,08,03,10,16,17.40
2018,08,03,10,17,17.40
2018,08,03,10,18,17.40
2018,08,03,10,19,17.40
2018,08,03,10,20,17.40
2018,08,03,10,21,17.50
2018,08,03,10,22,17.50
2018,08,03,10,23,17.50
2018,08,03,10,24,17.50
2018,08,03,10,25,17.50
2018,08,03,10,26,17.50
2018,08,03,10,27,17.60
2018,08,03,10,28,17.60
2018,08,03,10,29,17.60
2018,08,03,10,30,17.60
2018,08,03,10,31,17.60
2018,08,03,10,32,17.60
2018,08,03,10,33,17.70
2018,08,03,10,34,17.80
2018,08,03,10,35,17.80
2018,08,03,10,36,17.80
2018,08,03,10,37,17.80
2018,08,03,10,38,17.90
2018,08,03,10,39,17.90
2018,08,03,10,40,18.00
2018,08,03,10,41,18.10
2018,08,03,10,42,18.10
2018,08,03,10,43,18.20
2018,08,03,10,44,18.20
2018,08,03,10,45,18.20
2018,08,03,10,46,18.20
2018,08,03,10,47,18.20
2018,08,03,10,48,18.20
2018,08,03,10,49,18.20
2018,08,03,10,50,18.10
2018,08,03,10,51,18.10
2018,08,03,10,52,18.10
2018,08,03,10,53,18.20
2018,08,03,10,54,18.20
2018,08,03,10,55,18.30
2018,08,03,10,56,18.30
2018,08,03,10,57,18.30
2018,08,03,10,58,18.30
2018,08,03,10,59,18.30
2018,08,03,11,00,18.30
2018,08,03,11,01,18.30
2018,08,03,11,02,18.30
2018,08,03,11,03,18.30
2018,08,03,11,04,18.30
2018,08,03,11,05,18.40
2018,08,03,11,06,18.40
2018,08,03,11,07,18.50
2018,08,03,11,08,18.60
2018,08,03,11,09,18.60
2018,08,03,11,10,18.60
2018,08,03,11,11,18.70
2018,08,03,11,12,18.70
2018,08,03,11,13,18.70
2018,08,03,11,14,18.80
2018,08,03,11,15,18.80
2018,08,03,11,16,18.80
2018,08,03,11,17,18.70
2018,08,03,11,18,18.70
2018,08,03,11,19,18.70
2018,08,03,11,20,18.70
2018,08,03,11,21,18.80
2018,08,03,11,22,18.80
2018,08,03,11,23,18.70
2018,08,03,11,24,18.70
2018,08,03,11,25,18.80
2018,08,03,11,26,18.80
2018,08,03,11,27,18.80
2018,08,03,11,28,18.80
2018,08,03,11,29,18.80
2018,08,03,11,30,18.90
2018,08,03,11,31,19.00
2018,08,03,11,32,19.00
2018,08,03,11,33,19.00
2018,08,03,11,34,19.00
2018,08,03,11,35,19.00
2018,08,03,11,36,19.00
2018,08,03,11,37,19.00
2018,08,03,11,38,19.10
2018,08,03,11,39,19.20
2018,08,03,11,40,19.20
2018,08,03,11,41,19.30
2018,08,03,11,42,19.30
2018,08,03,11,43,19.30
2018,08,03,11,44,19.30
2018,08,03,11,45,19.30
2018,08,03,11,46,19.30
2018,08,03,11,47,19.30
2018,08,03,11,48,19.30
2018,08,03,11,49,19.40
2018,08,03,11,50,19.40
2018,08,03,11,51,19.50
2018,08,03,11,52,19.60
2018,08,03,11,53,19.70
2018,08,03,11,54,19.80
2018,08,03,11,55,19.80
2018,08,03,11,56,19.80
2018,08,03,11,57,19.80
2018,08,03,11,58,19.90
2018,08,03,11,59,19.90
2018,08,03,12,00,19.90
2018,08,03,12,01,20.00
2018,08,03,12,02,20.20
2018,08,03,12,03,20.30
2018,08,03,12,04,20.40
2018,08,03,12,05,20.40
2018,08,03,12,06,20.30
2018,08,03,12,07,20.30
2018,08,03,12,08,20.20
2018,08,03,12,09,20.20
2018,08,03,12,10,20.20
2018,08,03,12,11,20.10
2018,08,03,12,12,20.10
2018,08,03,12,13,20.20
2018,08,03,12,14,20.30
2018,08,03,12,15,20.40
2018,08,03,12,16,20.60
2018,08,03,12,17,20.60
2018,08,03,12,18,20.60
2018,08,03,12,19,20.60
2018,08,03,12,20,20.60
2018,08,03,12,21,20.70
2018,08,03,12,22,20.90
2018,08,03,12,23,21.00
2018,08,03,12,24,21.20
2018,08,03,12,25,21.20
2018,08,03,12,26,21.20
2018,08,03,12,27,21.20
2018,08,03,12,28,21.20
2018,08,03,12,29,21.20
2018,08,03,12,30,21.20
2018,08,03,12,31,21.10
2018,08,03,12,32,21.00
2018,08,03,12,33,20.90
2018,08,03,12,34,20.90
2018,08,03,12,35,21.10
2018,08,03,12,36,21.20
2018,08,03,12,37,21.20
2018,08,03,12,38,21.20
2018,08,03,12,39,21.20
2018,08,03,12,40,21.20
2018,08,03,12,41,21.30
2018,08,03,12,42,21.30
2018,08,03,12,43,21.20
2018,08,03,12,44,21.20
2018,08,03,12,45,21.20
2018,08,03,12,46,21.20
2018,08,03,12,47,21.20
2018,08,03,12,48,21.30
2018,08,03,12,49,21.30
2018,08,03,12,50,21.30
2018,08,03,12,51,21.30
2018,08,03,12,52,21.20
2018,08,03,12,53,21.20
2018,08,03,12,54,21.30
2018,08,03,12,55,21.30
2018,08,03,12,56,21.30
2018,08,03,12,57,21.30
2018,08,03,12,58,21.30
2018,08,03,12,59,21.30
2018,08,03,13,00,21.40
2018,08,03,13,01,21.50
2018,08,03,13,02,21.60
2018,08,03,13,03,21.70
2018,08,03,13,04,21.70
2018,08,03,13,05,21.70
2018,08,03,13,06,21.70
2018,08,03,13,07,21.60
2018,08,03,13,08,21.60
2018,08,03,13,09,21.70
2018,08,03,13,10,21.70
2018,08,03,13,11,21.70
2018,08,03,13,12,21.70
2018,08,03,13,13,21.70
2018,08,03,13,14,21.60
2018,08,03,13,15,21.60
2018,08,03,13,16,21.50
2018,08,03,13,17,21.50
2018,08,03,13,18,21.50
2018,08,03,13,19,21.50
2018,08,03,13,20,21.50
2018,08,03,13,21,21.50
2018,08,03,13,22,21.60
2018,08,03,13,23,21.60
2018,08,03,13,24,21.60
2018,08,03,13,25,21.60
2018,08,03,13,26,21.60
2018,08,03,13,27,21.60
2018,08,03,13,28,21.60
2018,08,03,13,29,21.70
2018,08,03,13,30,21.80
2018,08,03,13,31,21.80
2018,08,03,13,32,21.90
2018,08,03,13,33,22.10
2018,08,03,13,34,22.10
2018,08,03,13,35,22.10
2018,08,03,13,36,22.10
2018,08,03,13,37,22.20
2018,08,03,13,38,22.20
2018,08,03,13,39,22.20
2018,08,03,13,40,22.30
2018,08,03,13,41,22.40
2018,08,03,13,42,22.50
2018,08,03,13,43,22.50
2018,08,03,13,44,22.60
2018,08,03,13,45,22.60
2018,08,03,13,46,22.70
2018,08,03,13,47,22.80
2018,08,03,13,48,22.80
2018,08,03,13,49,22.90
2018,08,03,13,50,22.90
2018,08,03,13,51,22.80
2018,08,03,13,52,22.80
2018,08,03,13,53,22.80
2018,08,03,13,54,22.70
2018,08,03,13,55,22.80
2018,08,03,13,56,22.80
2018,08,03,13,57,22.70
2018,08,03,13,58,22.70
2018,08,03,13,59,22.60
2018,08,03,14,00,22.50
2018,08,03,14,01,22.40
2018,08,03,14,02,22.30
2018,08,03,14,03,22.30
2018,08,03,14,04,22.40
2018,08,03,14,05,22.50
2018,08,03,14,06,22.70
2018,08,03,14,07,22.80
2018,08,03,14,08,22.80
2018,08,03,14,09,22.90
2018,08,03,14,10,22.90
2018,08,03,14,11,22.90
2018,08,03,14,12,22.90
2018,08,03,14,13,23.00
2018,08,03,14,14,23.00
2018,08,03,14,15,23.10
2018,08,03,14,16,23.10
2018,08,03,14,17,23.10
2018,08,03,14,18,23.00
2018,08,03,14,19,23.00
2018,08,03,14,20,23.00
2018,08,03,14,21,23.10
2018,08,03,14,22,23.30
2018,08,03,14,23,23.40
2018,08,03,14,24,23.50
2018,08,03,14,25,23.50
2018,08,03,14,26,23.50
2018,08,03,14,27,23.40
2018,08,03,14,28,23.40
2018,08,03,14,29,23.30
2018,08,03,14,30,23.30
2018,08,03,14,31,23.20
2018,08,03,14,32,23.30
2018,08,03,14,33,23.20
2018,08,03,14,34,23.20
2018,08,03,14,35,23.20
2018,08,03,14,36,23.30
2018,08,03,14,37,23.30
2018,08,03,14,38,23.40
2018,08,03,14,39,23.40
2018,08,03,14,40,23.30
2018,08,03,14,41,23.30
2018,08,03,14,42,23.40
2018,08,03,14,43,23.40
2018,08,03,14,44,23.50
2018,08,03,14,45,23.60
2018,08,03,14,46,23.70
2018,08,03,14,47,23.80
2018,08,03,14,48,23.90
2018,08,03,14,49,23.90
2018,08,03,14,50,23.90
2018,08,03,14,51,23.80
2018,08,03,14,52,23.70
2018,08,03,14,53,23.60
2018,08,03,14,54,23.30
2018,08,03,14,55,23.00
2018,08,03,14,56,22.90
2018,08,03,14,57,22.80
2018,08,03,14,58,22.80
2018,08,03,14,59,22.80
2018,08,03,15,00,22.70
2018,08,03,15,01,22.50
2018,08,03,15,02,22.40
2018,08,03,15,03,22.40
2018,08,03,15,04,22.30
2018,08,03,15,05,22.30
2018,08,03,15,06,22.20
2018,08,03,15,07,22.20
2018,08,03,15,08,22.20
2018,08,03,15,09,22.10
2018,08,03,15,10,22.10
2018,08,03,15,11,22.10
2018,08,03,15,12,22.10
2018,08,03,15,13,22.10
2018,08,03,15,14,22.10
2018,08,03,15,15,22.10
2018,08,03,15,16,22.20
2018,08,03,15,17,22.20
2018,08,03,15,18,22.10
2018,08,03,15,19,22.10
2018,08,03,15,20,22.10
2018,08,03,15,21,22.10
2018,08,03,15,22,22.20
2018,08,03,15,23,22.20
2018,08,03,15,24,22.20
2018,08,03,15,25,22.20
2018,08,03,15,26,22.20
2018,08,03,15,27,22.20
2018,08,03,15,28,22.30
2018,08,03,15,29,22.20
2018,08,03,15,30,22.20
2018,08,03,15,31,22.20
2018,08,03,15,32,22.20
2018,08,03,15,33,22.30
2018,08,03,15,34,22.40
2018,08,03,15,35,22.50
2018,08,03,15,36,22.60
2018,08,03,15,37,22.70
2018,08,03,15,38,22.80
2018,08,03,15,39,22.80
2018,08,03,15,40,22.70
2018,08,03,15,41,22.60
2018,08,03,15,42,22.60
2018,08,03,15,43,22.60
2018,08,03,15,44,22.60
2018,08,03,15,45,22.60
2018,08,03,15,46,22.50
2018,08,03,15,47,22.40
2018,08,03,15,48,22.40
2018,08,03,15,49,22.40
2018,08,03,15,50,22.40
2018,08,03,15,51,22.40
2018,08,03,15,52,22.50
2018,08,03,15,53,22.50
2018,08,03,15,54,22.50
2018,08,03,15,55,22.50
2018,08,03,15,56,22.40
2018,08,03,15,57,22.30
2018,08,03,15,58,22.30
2018,08,03,15,59,22.30
2018,08,03,16,00,22.30
2018,08,03,16,01,22.30
2018,08,03,16,02,22.30
2018,08,03,16,03,22.30
2018,08,03,16,04,22.30
2018,08,03,16,05,22.30
2018,08,03,16,06,22.30
2018,08,03,16,07,22.30
2018,08,03,16,08,22.40
2018,08,03,16,09,22.40
2018,08,03,16,10,22.30
2018,08,03,16,11,22.30
2018,08,03,16,12,22.30
2018,08,03,16,13,22.20
2018,08,03,16,14,22.20
2018,08,03,16,15,22.30
2018,08,03,16,16,22.30
2018,08,03,16,17,22.30
2018,08,03,16,18,22.40
2018,08,03,16,19,22.50
2018,08,03,16,20,22.50
2018,08,03,16,21,22.60
2018,08,03,16,22,22.60
2018,08,03,16,23,22.70
2018,08,03,16,24,22.70
2018,08,03,16,25,22.70
2018,08,03,16,26,22.60
2018,08,03,16,27,22.60
2018,08,03,16,28,22.50
2018,08,03,16,29,22.50
2018,08,03,16,30,22.50
2018,08,03,16,31,22.50
2018,08,03,16,32,22.40
2018,08,03,16,33,22.40
2018,08,03,16,34,22.40
2018,08,03,16,35,22.40
2018,08,03,16,36,22.50
2018,08,03,16,37,22.50
2018,08,03,16,38,22.50
2018,08,03,16,39,22.50
2018,08,03,16,40,22.40
2018,08,03,16,41,22.40
2018,08,03,16,42,22.40
2018,08,03,16,43,22.40
2018,08,03,16,44,22.30
2018,08,03,16,45,22.30
2018,08,03,16,46,22.20
2018,08,03,16,47,22.10
2018,08,03,16,48,22.00
2018,08,03,16,49,22.00
2018,08,03,16,50,22.00
2018,08,03,16,51,22.10
2018,08,03,16,52,22.10
2018,08,03,16,53,22.10
2018,08,03,16,54,22.10
2018,08,03,16,55,22.10
2018,08,03,16,56,22.10
2018,08,03,16,57,22.10
2018,08,03,16,58,22.20
2018,08,03,16,59,22.20
2018,08,03,17,00,22.30
2018,08,03,17,01,22.40
2018,08,03,17,02,22.50
2018,08,03,17,03,22.60
2018,08,03,17,04,22.60
2018,08,03,17,05,22.60
2018,08,03,17,06,22.70
2018,08,03,17,07,22.80
2018,08,03,17,08,22.90
2018,08,03,17,09,22.90
2018,08,03,17,10,22.90
2018,08,03,17,11,22.90
2018,08,03,17,12,22.90
2018,08,03,17,13,22.90
2018,08,03,17,14,22.90
2018,08,03,17,15,22.90
2018,08,03,17,16,22.90
2018,08,03,17,17,22.80
2018,08,03,17,18,22.80
2018,08,03,17,19,22.70